Time,TemperatureF,DewpointF,PressureIn,WindDirection,WindDirectionDegrees,WindSpeedMPH,WindSpeedGustMPH,Humidity,HourlyPrecipIn,Conditions,Clouds,dailyrainin,SoftwareType,DateUTC
2013-03-22 00:03:00,28.0,17.0,29.85,North,358,1.0,4.0,64,-99.99,,,-99.99,,2013-03-22 04:03:00,
2013-03-22 00:12:00,28.0,17.0,29.85,North,358,1.0,4.0,64,-99.99,,,-99.99,,2013-03-22 04:12:00,
2013-03-22 00:23:00,28.0,16.0,29.85,NNE,16,2.0,4.0,60,-99.99,,,-99.99,,2013-03-22 04:23:00,
2013-03-22 00:32:00,28.0,15.0,29.85,NNW,337,2.0,3.0,58,-99.99,,,-99.99,,2013-03-22 04:32:00,
2013-03-22 00:43:00,28.0,15.0,29.85,NNW,337,2.0,3.0,58,-99.99,,,-99.99,,2013-03-22 04:43:00,
2013-03-22 00:52:00,28.0,15.0,29.85,North,351,2.0,5.0,58,-99.99,,,-99.99,,2013-03-22 04:52:00,
2013-03-22 01:02:00,28.0,14.0,29.85,NNE,23,2.0,5.0,56,-99.99,,,-99.99,,2013-03-22 05:02:00,
2013-03-22 01:12:00,28.0,14.0,29.85,NNE,23,2.0,5.0,56,-99.99,,,-99.99,,2013-03-22 05:12:00,
2013-03-22 01:22:00,28.0,14.0,29.86,North,358,3.0,5.0,55,-99.99,,,-99.99,,2013-03-22 05:22:00,
2013-03-22 01:32:00,28.0,14.0,29.87,NE,49,3.0,6.0,54,-99.99,,,-99.99,,2013-03-22 05:32:00,
2013-03-22 01:42:00,28.0,14.0,29.87,NE,49,3.0,6.0,54,-99.99,,,-99.99,,2013-03-22 05:42:00,
2013-03-22 01:52:00,27.0,13.0,29.87,NNE,18,3.0,6.0,55,-99.99,,,-99.99,,2013-03-22 05:52:00,
2013-03-22 02:02:00,27.0,13.0,29.87,North,8,2.0,6.0,55,-99.99,,,-99.99,,2013-03-22 06:02:00,
2013-03-22 02:13:00,27.0,13.0,29.87,North,8,2.0,6.0,55,-99.99,,,-99.99,,2013-03-22 06:13:00,
2013-03-22 02:22:00,27.0,13.0,29.87,NNW,342,2.0,6.0,56,-99.99,,,-99.99,,2013-03-22 06:22:00,
2013-03-22 02:32:00,26.0,12.0,29.87,NNW,340,2.0,6.0,56,-99.99,,,-99.99,,2013-03-22 06:32:00,
2013-03-22 02:42:00,26.0,12.0,29.87,NNW,340,2.0,6.0,56,-99.99,,,-99.99,,2013-03-22 06:42:00,
2013-03-22 02:52:00,26.0,13.0,29.86,North,11,2.0,6.0,57,-99.99,,,-99.99,,2013-03-22 06:52:00,
2013-03-22 03:03:00,26.0,13.0,29.86,NW,321,2.0,6.0,57,-99.99,,,-99.99,,2013-03-22 07:03:00,
2013-03-22 03:12:00,26.0,13.0,29.86,NW,321,2.0,6.0,57,-99.99,,,-99.99,,2013-03-22 07:12:00,
2013-03-22 03:22:00,26.0,13.0,29.86,NNW,332,2.0,6.0,57,-99.99,,,-99.99,,2013-03-22 07:22:00,
2013-03-22 03:32:00,26.0,13.0,29.85,NNW,337,1.0,3.0,58,-99.99,,,-99.99,,2013-03-22 07:32:00,
2013-03-22 03:42:00,26.0,13.0,29.85,NNW,337,1.0,3.0,58,-99.99,,,-99.99,,2013-03-22 07:42:00,
2013-03-22 03:52:00,25.0,13.0,29.85,NW,308,1.0,3.0,59,-99.99,,,-99.99,,2013-03-22 07:52:00,
2013-03-22 04:03:00,25.0,12.0,29.85,WNW,295,2.0,7.0,58,-99.99,,,-99.99,,2013-03-22 08:03:00,
2013-03-22 04:13:00,25.0,12.0,29.85,WNW,295,2.0,7.0,58,-99.99,,,-99.99,,2013-03-22 08:13:00,
2013-03-22 04:22:00,25.0,13.0,29.85,NNW,336,2.0,4.0,59,-99.99,,,-99.99,,2013-03-22 08:22:00,
2013-03-22 04:32:00,25.0,13.0,29.85,NW,314,1.0,3.0,61,-99.99,,,-99.99,,2013-03-22 08:32:00,
2013-03-22 04:42:00,25.0,13.0,29.85,NW,314,1.0,3.0,61,-99.99,,,-99.99,,2013-03-22 08:42:00,
2013-03-22 04:52:00,24.0,13.0,29.85,NW,326,1.0,3.0,61,-99.99,,,-99.99,,2013-03-22 08:52:00,
2013-03-22 05:02:00,24.0,13.0,29.85,NW,323,1.0,2.0,61,-99.99,,,-99.99,,2013-03-22 09:02:00,
2013-03-22 05:12:00,24.0,13.0,29.85,NW,323,1.0,2.0,61,-99.99,,,-99.99,,2013-03-22 09:12:00,
2013-03-22 05:22:00,24.0,13.0,29.86,NW,311,1.0,2.0,62,-99.99,,,-99.99,,2013-03-22 09:22:00,
2013-03-22 05:32:00,24.0,13.0,29.85,North,11,0.0,2.0,63,-99.99,,,-99.99,,2013-03-22 09:32:00,
2013-03-22 05:42:00,24.0,13.0,29.85,North,11,0.0,2.0,63,-99.99,,,-99.99,,2013-03-22 09:42:00,
2013-03-22 05:53:00,23.0,13.0,29.86,North,11,0.0,1.0,64,-99.99,,,-99.99,,2013-03-22 09:53:00,
2013-03-22 06:04:00,23.0,13.0,29.86,North,11,0.0,0.0,65,-99.99,,,-99.99,,2013-03-22 10:04:00,
2013-03-22 06:12:00,23.0,13.0,29.86,North,11,0.0,0.0,65,-99.99,,,-99.99,,2013-03-22 10:12:00,
2013-03-22 06:23:00,23.0,13.0,29.87,NW,313,0.0,1.0,65,-99.99,,,-99.99,,2013-03-22 10:23:00,
2013-03-22 06:33:00,23.0,13.0,29.88,NW,314,0.0,1.0,66,-99.99,,,-99.99,,2013-03-22 10:33:00,
2013-03-22 06:42:00,23.0,13.0,29.88,NW,314,0.0,1.0,66,-99.99,,,-99.99,,2013-03-22 10:42:00,
2013-03-22 06:52:00,23.0,13.0,29.88,NW,308,1.0,2.0,66,-99.99,,,-99.99,,2013-03-22 10:52:00,
2013-03-22 07:03:00,23.0,13.0,29.88,NW,308,0.0,1.0,66,-99.99,,,-99.99,,2013-03-22 11:03:00,
2013-03-22 07:12:00,23.0,13.0,29.88,NW,308,0.0,1.0,66,-99.99,,,-99.99,,2013-03-22 11:12:00,
2013-03-22 07:22:00,23.0,14.0,29.89,NW,308,0.0,1.0,67,-99.99,,,-99.99,,2013-03-22 11:22:00,
2013-03-22 07:33:00,23.0,14.0,29.89,NW,308,0.0,1.0,67,-99.99,,,-99.99,,2013-03-22 11:33:00,
2013-03-22 07:42:00,23.0,14.0,29.89,NW,308,0.0,1.0,67,-99.99,,,-99.99,,2013-03-22 11:42:00,
2013-03-22 07:52:00,23.0,14.0,29.90,NW,308,0.0,0.0,67,-99.99,,,-99.99,,2013-03-22 11:52:00,
2013-03-22 08:02:00,23.0,13.0,29.90,NW,308,0.0,0.0,66,-99.99,,,-99.99,,2013-03-22 12:02:00,
2013-03-22 08:12:00,23.0,13.0,29.91,NW,308,0.0,0.0,66,-99.99,,,-99.99,,2013-03-22 12:12:00,
2013-03-22 08:22:00,23.0,13.0,29.91,NW,308,0.0,0.0,66,-99.99,,,-99.99,,2013-03-22 12:22:00,
2013-03-22 08:32:00,24.0,15.0,29.91,NW,308,0.0,0.0,67,-99.99,,,-99.99,,2013-03-22 12:32:00,
2013-03-22 08:42:00,24.0,15.0,29.91,NW,308,0.0,0.0,67,-99.99,,,-99.99,,2013-03-22 12:42:00,
2013-03-22 08:52:00,25.0,16.0,29.91,NW,308,1.0,2.0,67,-99.99,,,-99.99,,2013-03-22 12:52:00,
2013-03-22 09:02:00,26.0,16.0,29.91,NNW,333,1.0,3.0,66,-99.99,,,-99.99,,2013-03-22 13:02:00,
2013-03-22 09:12:00,26.0,16.0,29.91,NNW,333,1.0,3.0,66,-99.99,,,-99.99,,2013-03-22 13:12:00,
2013-03-22 09:22:00,27.0,16.0,29.92,North,352,2.0,3.0,64,-99.99,,,-99.99,,2013-03-22 13:22:00,
2013-03-22 09:32:00,28.0,17.0,29.92,NNE,18,2.0,4.0,62,-99.99,,,-99.99,,2013-03-22 13:32:00,
2013-03-22 09:42:00,28.0,17.0,29.92,NNE,18,2.0,4.0,62,-99.99,,,-99.99,,2013-03-22 13:42:00,
2013-03-22 09:53:00,29.0,18.0,29.92,NW,308,2.0,4.0,63,-99.99,,,-99.99,,2013-03-22 13:53:00,
2013-03-22 10:03:00,30.0,19.0,29.92,NNW,336,2.0,4.0,62,-99.99,,,-99.99,,2013-03-22 14:03:00,
2013-03-22 10:12:00,30.0,19.0,29.92,NNW,336,2.0,4.0,62,-99.99,,,-99.99,,2013-03-22 14:12:00,
2013-03-22 10:22:00,30.0,19.0,29.92,NW,318,3.0,6.0,62,-99.99,,,-99.99,,2013-03-22 14:22:00,
2013-03-22 10:32:00,31.0,19.0,29.92,NW,318,2.0,5.0,61,-99.99,,,-99.99,,2013-03-22 14:32:00,
2013-03-22 10:43:00,31.0,19.0,29.92,NW,318,2.0,5.0,61,-99.99,,,-99.99,,2013-03-22 14:43:00,
2013-03-22 10:52:00,32.0,20.0,29.92,NNW,340,3.0,6.0,60,-99.99,,,-99.99,,2013-03-22 14:52:00,
2013-03-22 11:03:00,32.0,19.0,29.92,NW,314,3.0,6.0,58,-99.99,,,-99.99,,2013-03-22 15:03:00,
2013-03-22 11:12:00,32.0,19.0,29.92,NW,314,3.0,6.0,58,-99.99,,,-99.99,,2013-03-22 15:12:00,
2013-03-22 11:22:00,33.0,20.0,29.91,NNW,335,3.0,7.0,59,-99.99,,,-99.99,,2013-03-22 15:22:00,
2013-03-22 11:33:00,34.0,20.0,29.92,NNW,329,3.0,7.0,55,-99.99,,,-99.99,,2013-03-22 15:33:00,
2013-03-22 11:43:00,34.0,20.0,29.92,NNW,329,3.0,7.0,55,-99.99,,,-99.99,,2013-03-22 15:43:00,
2013-03-22 11:52:00,35.0,20.0,29.92,NE,47,3.0,6.0,55,-99.99,,,-99.99,,2013-03-22 15:52:00,
2013-03-22 12:03:00,35.0,20.0,29.91,NNE,12,4.0,7.0,53,-99.99,,,-99.99,,2013-03-22 16:03:00,
2013-03-22 12:13:00,36.0,21.0,29.91,North,9,4.0,9.0,53,-99.99,,,-99.99,,2013-03-22 16:13:00,
2013-03-22 12:23:00,36.0,21.0,29.91,North,9,4.0,9.0,53,-99.99,,,-99.99,,2013-03-22 16:23:00,
2013-03-22 12:32:00,37.0,21.0,29.91,West,273,2.0,7.0,51,-99.99,,,-99.99,,2013-03-22 16:32:00,
2013-03-22 12:42:00,36.0,19.0,29.91,WNW,302,4.0,9.0,50,-99.99,,,-99.99,,2013-03-22 16:42:00,
2013-03-22 12:52:00,36.0,19.0,29.91,WNW,302,4.0,9.0,50,-99.99,,,-99.99,,2013-03-22 16:52:00,
2013-03-22 13:03:00,37.0,19.0,29.92,NNW,329,5.0,9.0,48,-99.99,,,-99.99,,2013-03-22 17:03:00,
2013-03-22 13:12:00,37.0,19.0,29.91,NNW,337,5.0,9.0,48,-99.99,,,-99.99,,2013-03-22 17:12:00,
2013-03-22 13:23:00,37.0,19.0,29.91,NNW,337,5.0,9.0,48,-99.99,,,-99.99,,2013-03-22 17:23:00,
2013-03-22 13:32:00,36.0,18.0,29.91,WNW,300,5.0,9.0,47,-99.99,,,-99.99,,2013-03-22 17:32:00,
2013-03-22 13:42:00,36.0,18.0,29.91,WNW,300,5.0,9.0,47,-99.99,,,-99.99,,2013-03-22 17:42:00,
2013-03-22 13:52:00,38.0,19.0,29.90,NW,322,3.0,8.0,46,-99.99,,,-99.99,,2013-03-22 17:52:00,
2013-03-22 14:02:00,37.0,18.0,29.90,WNW,300,4.0,12.0,45,-99.99,,,-99.99,,2013-03-22 18:02:00,
2013-03-22 14:12:00,37.0,18.0,29.90,WNW,300,4.0,12.0,45,-99.99,,,-99.99,,2013-03-22 18:12:00,
2013-03-22 14:22:00,37.0,18.0,29.90,WNW,300,4.0,12.0,45,-99.99,,,-99.99,,2013-03-22 18:22:00,
2013-03-22 14:33:00,38.0,18.0,29.89,NW,316,4.0,9.0,43,-99.99,,,-99.99,,2013-03-22 18:33:00,
2013-03-22 14:42:00,38.0,18.0,29.89,NW,316,4.0,9.0,43,-99.99,,,-99.99,,2013-03-22 18:42:00,
2013-03-22 14:52:00,37.0,18.0,29.90,NNW,332,3.0,9.0,45,-99.99,,,-99.99,,2013-03-22 18:52:00,
2013-03-22 15:02:00,39.0,19.0,29.89,WNW,293,3.0,9.0,45,-99.99,,,-99.99,,2013-03-22 19:02:00,
2013-03-22 15:12:00,39.0,19.0,29.89,WNW,293,3.0,9.0,45,-99.99,,,-99.99,,2013-03-22 19:12:00,
2013-03-22 15:22:00,39.0,20.0,29.89,NNW,343,2.0,7.0,46,-99.99,,,-99.99,,2013-03-22 19:22:00,
2013-03-22 15:32:00,39.0,19.0,29.89,WNW,287,4.0,7.0,44,-99.99,,,-99.99,,2013-03-22 19:32:00,
2013-03-22 15:42:00,39.0,19.0,29.89,WNW,287,4.0,7.0,44,-99.99,,,-99.99,,2013-03-22 19:42:00,
2013-03-22 15:52:00,38.0,19.0,29.89,NNE,12,4.0,9.0,45,-99.99,,,-99.99,,2013-03-22 19:52:00,
2013-03-22 16:02:00,38.0,19.0,29.89,NW,322,4.0,7.0,45,-99.99,,,-99.99,,2013-03-22 20:02:00,
2013-03-22 16:12:00,38.0,19.0,29.89,NW,322,4.0,7.0,45,-99.99,,,-99.99,,2013-03-22 20:12:00,
2013-03-22 16:22:00,37.0,19.0,29.90,NW,312,5.0,8.0,47,-99.99,,,-99.99,,2013-03-22 20:22:00,
2013-03-22 16:32:00,38.0,19.0,29.90,NW,315,4.0,8.0,46,-99.99,,,-99.99,,2013-03-22 20:32:00,
2013-03-22 16:43:00,38.0,19.0,29.90,NW,315,4.0,8.0,46,-99.99,,,-99.99,,2013-03-22 20:43:00,
2013-03-22 16:52:00,38.0,19.0,29.90,NNW,335,4.0,10.0,46,-99.99,,,-99.99,,2013-03-22 20:52:00,
2013-03-22 17:03:00,37.0,20.0,29.91,WNW,302,4.0,7.0,49,-99.99,,,-99.99,,2013-03-22 21:03:00,
2013-03-22 17:12:00,37.0,19.0,29.90,WNW,288,4.0,9.0,48,-99.99,,,-99.99,,2013-03-22 21:12:00,
2013-03-22 17:22:00,37.0,19.0,29.90,WNW,288,4.0,9.0,48,-99.99,,,-99.99,,2013-03-22 21:22:00,
2013-03-22 17:33:00,37.0,19.0,29.91,WNW,293,4.0,9.0,47,-99.99,,,-99.99,,2013-03-22 21:33:00,
2013-03-22 17:43:00,37.0,19.0,29.91,WNW,293,4.0,9.0,47,-99.99,,,-99.99,,2013-03-22 21:43:00,
2013-03-22 17:53:00,37.0,19.0,29.91,WNW,293,4.0,7.0,47,-99.99,,,-99.99,,2013-03-22 21:53:00,
2013-03-22 18:03:00,37.0,19.0,29.91,WNW,287,5.0,9.0,48,-99.99,,,-99.99,,2013-03-22 22:03:00,
2013-03-22 18:12:00,37.0,19.0,29.91,WNW,287,5.0,9.0,48,-99.99,,,-99.99,,2013-03-22 22:12:00,
2013-03-22 18:23:00,37.0,20.0,29.91,North,359,6.0,10.0,49,-99.99,,,-99.99,,2013-03-22 22:23:00,
2013-03-22 18:32:00,36.0,20.0,29.92,NW,319,3.0,8.0,51,-99.99,,,-99.99,,2013-03-22 22:32:00,
2013-03-22 18:43:00,36.0,20.0,29.92,NW,319,3.0,8.0,51,-99.99,,,-99.99,,2013-03-22 22:43:00,
2013-03-22 18:53:00,36.0,21.0,29.93,NW,316,3.0,6.0,54,-99.99,,,-99.99,,2013-03-22 22:53:00,
2013-03-22 19:02:00,36.0,21.0,29.94,NNW,345,4.0,9.0,55,-99.99,,,-99.99,,2013-03-22 23:02:00,
2013-03-22 19:12:00,36.0,21.0,29.94,NNW,345,4.0,9.0,55,-99.99,,,-99.99,,2013-03-22 23:12:00,
2013-03-22 19:22:00,35.0,20.0,29.94,WNW,300,3.0,8.0,55,-99.99,,,-99.99,,2013-03-22 23:22:00,
2013-03-22 19:32:00,35.0,20.0,29.95,NNW,327,3.0,6.0,55,-99.99,,,-99.99,,2013-03-22 23:32:00,
2013-03-22 19:42:00,35.0,20.0,29.95,NNW,327,3.0,6.0,55,-99.99,,,-99.99,,2013-03-22 23:42:00,
2013-03-22 19:52:00,35.0,21.0,29.95,NW,316,3.0,7.0,56,-99.99,,,-99.99,,2013-03-22 23:52:00,
2013-03-22 20:02:00,35.0,21.0,29.95,WNW,295,2.0,6.0,56,-99.99,,,-99.99,,2013-03-23 00:02:00,
2013-03-22 20:12:00,35.0,21.0,29.95,WNW,295,2.0,6.0,56,-99.99,,,-99.99,,2013-03-23 00:12:00,
2013-03-22 20:23:00,35.0,21.0,29.96,NW,314,3.0,7.0,57,-99.99,,,-99.99,,2013-03-23 00:23:00,
2013-03-22 20:33:00,34.0,20.0,29.97,NW,308,2.0,5.0,57,-99.99,,,-99.99,,2013-03-23 00:33:00,
2013-03-22 20:42:00,34.0,20.0,29.97,NW,308,2.0,5.0,57,-99.99,,,-99.99,,2013-03-23 00:42:00,
2013-03-22 20:52:00,34.0,20.0,29.97,NW,308,2.0,5.0,57,-99.99,,,-99.99,,2013-03-23 00:52:00,
2013-03-22 21:03:00,34.0,21.0,29.97,NW,315,3.0,6.0,59,-99.99,,,-99.99,,2013-03-23 01:03:00,
2013-03-22 21:12:00,34.0,21.0,29.97,NW,315,3.0,6.0,59,-99.99,,,-99.99,,2013-03-23 01:12:00,
2013-03-22 21:22:00,34.0,21.0,29.98,NW,315,3.0,5.0,59,-99.99,,,-99.99,,2013-03-23 01:22:00,
2013-03-22 21:32:00,34.0,22.0,29.98,NW,308,3.0,6.0,60,-99.99,,,-99.99,,2013-03-23 01:32:00,
2013-03-22 21:42:00,34.0,22.0,29.98,NW,308,3.0,6.0,60,-99.99,,,-99.99,,2013-03-23 01:42:00,
2013-03-22 21:52:00,33.0,21.0,29.98,NW,304,3.0,5.0,62,-99.99,,,-99.99,,2013-03-23 01:52:00,
2013-03-22 22:02:00,33.0,21.0,29.99,West,281,3.0,5.0,62,-99.99,,,-99.99,,2013-03-23 02:02:00,
2013-03-22 22:12:00,33.0,21.0,29.99,West,281,3.0,5.0,62,-99.99,,,-99.99,,2013-03-23 02:12:00,
2013-03-22 22:22:00,33.0,22.0,29.99,NNW,339,3.0,5.0,63,-99.99,,,-99.99,,2013-03-23 02:22:00,
2013-03-22 22:32:00,33.0,22.0,29.98,NW,313,2.0,3.0,64,-99.99,,,-99.99,,2013-03-23 02:32:00,
2013-03-22 22:42:00,33.0,22.0,29.98,NW,313,2.0,3.0,64,-99.99,,,-99.99,,2013-03-23 02:42:00,
2013-03-22 22:52:00,33.0,22.0,29.99,NW,318,2.0,6.0,64,-99.99,,,-99.99,,2013-03-23 02:52:00,
2013-03-22 23:02:00,32.0,22.0,29.99,NW,318,3.0,6.0,65,-99.99,,,-99.99,,2013-03-23 03:02:00,
2013-03-22 23:12:00,32.0,22.0,29.99,NW,318,3.0,6.0,65,-99.99,,,-99.99,,2013-03-23 03:12:00,
2013-03-22 23:23:00,32.0,22.0,29.98,NW,304,3.0,5.0,65,-99.99,,,-99.99,,2013-03-23 03:23:00,
2013-03-22 23:33:00,32.0,22.0,29.98,NNW,334,3.0,5.0,65,-99.99,,,-99.99,,2013-03-23 03:33:00,
2013-03-22 23:43:00,32.0,22.0,29.98,NNW,334,3.0,5.0,65,-99.99,,,-99.99,,2013-03-23 03:43:00,
2013-03-22 23:53:00,32.0,22.0,29.99,NW,318,3.0,5.0,66,-99.99,,,-99.99,,2013-03-23 03:53:00,